Flag for Puerto Rico Weather past 2 weeks in Caguas, Puerto Rico

91 °F

Scattered clouds.

Feels Like: 96 °F
Forecast: N/A
Wind: 12 mph from South

Location: Luis Munoz Marin

Current Time: Oct 4, 2015 at 5:59:54 PM

Latest Report: Oct 4, 2015 at 4:56 PM

Visibility: 10 mi

Pressure: 29.86 "Hg

Humidity: 49%

Dew point: 69 °F

Location of CaguasLocation

Historic Weather in Caguas — Graph


Caguas temperature yesterday

Maximum temperature yesterday: 92 °F (at 11:56 AM)
Minimum temperature yesterday: 79 °F (at 6:56 PM)
Average temperature yesterday: 86 °F

Past Weeks' High & Low Weather Summary

High95 °F (Oct 1, 12:56 PM)90% (Sep 22, 12:56 PM)29.97 "Hg (Sep 22, 12:56 PM)
Low78 °F (Sep 21, 3:56 AM)43% (Oct 4, 3:56 PM)29.71 "Hg (Oct 1, 2:56 PM)
Average85 °F71%29.87 "Hg
* Reported Sep 19 3:56 PM — Oct 4 3:56 PM, Caguas, Weather by CustomWeather, © 2015

Note: Actual official high and low records may vary slightly from our data, if they occured in-between our weather recording intervals... More about our weather records


Caguas weather history for previous 24 hours

Time TempWeatherWind HumidityBarometerVisibility
3:56 PM
Sun, Oct 4
94 °FScattered clouds.9 mph43%29.85 "Hg10 mi
2:56 PM94 °FScattered clouds.9 mph46%29.85 "Hg10 mi
1:56 PM95 °FScattered clouds.10 mph44%29.86 "Hg10 mi
12:56 PM94 °FScattered clouds.12 mph49%29.88 "Hg10 mi
11:56 AM92 °FScattered clouds.13 mph54%29.89 "Hg9 mi
10:56 AM91 °FBroken clouds.7 mph57%29.92 "Hg9 mi
9:56 AM88 °FPartly sunny.10 mph61%29.92 "Hg9 mi
8:56 AM87 °FScattered clouds.10 mph69%29.90 "Hg9 mi
7:56 AM86 °FScattered clouds.6 mph70%29.89 "Hg9 mi
6:56 AM84 °FPartly cloudy.5 mph74%29.88 "Hg9 mi
5:56 AM84 °FPassing clouds.10 mph74%29.85 "Hg10 mi
4:56 AM84 °FClear.7 mph77%29.84 "Hg10 mi
3:56 AM84 °FClear.8 mph77%29.83 "Hg10 mi
2:56 AM84 °FPassing clouds.5 mph77%29.85 "Hg10 mi
1:56 AM84 °FPassing clouds.6 mph77%29.85 "Hg10 mi
12:56 AM84 °FPassing clouds.3 mph80%29.87 "Hg10 mi
11:56 PM
Sat, Oct 3
84 °FClear.3 mph80%29.88 "Hg10 mi
10:56 PM84 °FClear.5 mph77%29.88 "Hg10 mi
9:56 PM83 °FClear.3 mph74%29.88 "Hg10 mi
8:56 PM81 °FClear.5 mph72%29.88 "Hg10 mi
7:56 PM81 °FPassing clouds.6 mph72%29.86 "Hg10 mi
6:56 PM79 °FScattered clouds.6 mph79%29.85 "Hg10 mi
5:56 PM80 °FLight rain. Broken clouds.8 mph79%29.85 "Hg10 mi
Weather by CustomWeather, © 2015

See weather overviewHow to use our weather pages